Orbital Elements at Epoch 2459200.5 (2020-Dec-17.0) TDB
Reference: JPL 28 (heliocentric ecliptic J2000)
Element | Value | Uncertainty (1-sigma) | Units |
e | .1171287043076027 | 4.3765e-08 | |
a | 2.575085724222453 | 1.5752e-08 | au |
q | 2.273469269863272 | 1.165e-07 | au |
i | 8.749669886734351 | 6.8746e-06 | deg |
node | 331.4931667047163 | 2.7151e-05 | deg |
peri | 319.3030440044628 | 4.104e-05 | deg |
M | 233.6650211227704 | 2.8823e-05 | deg |
tp | 2459730.172072603290 (2022-May-30.67207260) | 0.00011996 | TDB |
period | 1509.336114446073 4.13 | 1.3849e-05 3.792e-08 | d yr |
n | .2385154615690887 | 2.1885e-09 | deg/d |
Q | 2.876702178581634 | 1.7597e-08 | au |
|
| | Orbit Determination Parameters
Additional Information
|